Location: Firdgum
(53.2488°N, 5.5615°E)
Time: 13:14:52
(UTC+00:00)

Cosmos 1943 - Pass Details

Date: 08 December 2019
Orbit: 835 x 848 km, 71.0° (Epoch: 17 January)

Event Time Altitude Azimuth Distance (km) Brightness Sun altitude
Exits shadow 04:29:39 46° 352° (N) 1,111 3.7 -26.8°
Maximum altitude 04:31:12 66° 54° (NE) 911 3.4 -26.6°
Drops below altitude 10° 04:36:47 10° 137° (SE) 2,445 6.2 -25.8°
Sets 04:39:14 0° 140° (SE) 3,377 7.0 -25.4°
